AirNav   Pilot Hours Calculator
 
 1904 users online  

CA84 Torrey Pines Gliderport
San Diego, California, USA

GOING TO SAN DIEGO?


FAA INFORMATION EFFECTIVE 02 JANUARY 2020

Location

FAA Identifier: CA84
Lat/Long: 32-53-23.0000N 117-14-49.0000W
32-53.383333N 117-14.816667W
32.8897222,-117.2469444
(estimated)
Elevation: 372 ft. / 113 m (estimated)
Variation: 13E (1985)
From city: 11 miles NW of SAN DIEGO, CA
Time zone: UTC -8 (UTC -7 during Daylight Saving Time)
Zip code: 92037

Gliderport Operations

Gliderport use: Private use. Permission required prior to landing
Activation date: 11/1961
Control tower: no
ARTCC: LOS ANGELES CENTER
FSS: SAN DIEGO FLIGHT SERVICE STATION
Attendance: UNATNDD
Wind indicator: no
Segmented circle: no

Gliderport Communications

WX ASOS at MYF (7 nm SE): 126.9 (858-576-4337)
WX ASOS at SAN (10 nm S): PHONE 619-296-8934
WX AWOS-3P at SEE (14 nm E): 125.45 (619-449-1228)
WX ASOS at CRQ (14 nm N): PHONE 760-930-0864
WX ASOS at RNM (19 nm NE): PHONE 760-789-7699

Nearby radio navigation aids

VOR radial/distance  VOR name  Freq  Var
MZBr335/6.5MISSION BAY VORTAC117.8015E
PGYr307/21.5POGGI VORTAC116.4514E
OCNr143/22.7OCEANSIDE VORTAC115.3015E
TIJr311/25.7TIJUANA VOR/DME116.5014E
JLIr231/36.5JULIAN VORTAC114.0015E

Gliderport Services

Airframe service: NONE
Powerplant service: NONE

Runway Information

Runway 9/27

Dimensions: 1500 x 30 ft. / 457 x 9 m
Surface: asphalt
RUNWAY 9  RUNWAY 27
Traffic pattern: leftleft
Obstructions: nonetrees, 100 ft. from runway

Gliderport Ownership and Management from official FAA records

Ownership: Publicly-owned
Owner: CITY OF SAN DIEGO
Manager: JIM FROST
4740 HARBINSON AVE
LA MESA, CA 91941
Phone 619-461-9614
WORK PHONE 619-535-9505 EXT 1585

Additional Remarks

GLIDER PORT IS LEASED FM CITY TO THE ASSOCD GLIDER CLUB OF SOUTHERN CALIF FOR STUDENT TRAINING & RIDGE SOARING.
ALL ACFT ARE TRAILERED GLIDERS.
ROLLING RWY .6 PERCENT GRADIENT.
EXTENSIVE HANG GLIDER OPERATIONS ON WEEKENDS AND WEEKDAYS.
FOR CD CTC LOS ANGELES ARTCC AT 661-575-2079.

Instrument Procedures

There are no published instrument procedures at CA84.

Some nearby airports with instrument procedures:

KNKX - Miramar MCAS (Joe Foss Field) Airport (5 nm E)
KMYF - Montgomery-Gibbs Executive Airport (7 nm SE)
KSAN - San Diego International Airport (10 nm S)
KNZY - North Island Naval Air Station (Halsey Field) (12 nm S)
KSEE - Gillespie Field Airport (14 nm E)
KCRQ - Mc Clellan-Palomar Airport (14 nm N)
KRNM - Ramona Airport (19 nm NE)
 
Loc | Ops | Rwys | IFR | FBO | Links
Com | Nav | Svcs | Stats | Notes
Area around CA84 (Torrey Pines Gliderport)
 
Road maps at: MapQuest Bing Google
 
Aerial photo
WARNING: Photo may not be current or correct
Aerial photo of CA84 (Torrey Pines Gliderport)
Photo by Doug Fronius
Photo taken 13-Mar-2004
from a 1942 Schweizer TG-2 sailplane.

Do you have a better or more recent aerial photo of Torrey Pines Gliderport that you would like to share? If so, please send us your photo.

 
Sectional chart

 
Airport distance calculator
Flying to Torrey Pines Gliderport? Find the distance to fly.

From to CA84

Sunrise and sunset
Times for 28-Jan-2020
 Local
(UTC-8)
 Zulu
(UTC)
Morning civil twilight06:2214:22
Sunrise06:4814:48
Sunset17:1601:16
Evening civil twilight17:4301:43

Current date and time
Zulu (UTC)  28-Jan-2020 15:54:34
Local (UTC-8)  28-Jan-2020 07:54:34
 
METAR
KNKX 
6nm E 
281455Z 01004KT 10SM CLR 09/04 A3017 RMK AO2 SLP212 T00890039 53005
KMYF 
7nm SE 
281453Z 00000KT 10SM CLR 10/06 A3017 RMK AO2 SLP214 T01000056 52004
KSAN 
10nm S 
281451Z 00000KT 10SM CLR 11/08 A3018 RMK AO2 SLP220 T01060078 53002
KNZY 
11nm S 
281452Z 04003KT 7SM CLR 11/09 A3016 RMK AO2 SLP213 T01110094 53002 $
KCRQ 
15nm N 
281453Z AUTO 05003KT 7SM CLR 09/07 A3016 RMK AO2 SLP213 T00940072 53005 $
KSEE 
15nm E 
281515Z AUTO 00000KT 10SM CLR 06/05 A3018 RMK AO2
KRNM 
19nm NE 
281453Z AUTO 00000KT 10SM CLR 02/01 A3018 RMK AO2 SLP221 T00170006 53004 $
TAF
KNKX 
6nm E 
2721/2821 VRB05KT 9999 FEW020 QNH3012INS TEMPO 2721/2803 31007KT T20/2722Z T09/2812Z COR 0000
KSAN 
10nm S 
281120Z 2812/2918 VRB04KT P6SM SKC FM281900 30008KT P6SM SCT250 FM290200 VRB04KT P6SM SCT015 SCT250 TEMPO 2910/2914 5SM BR BKN015
KNZY 
11nm S 
2807/2907 VRB05KT 9999 FEW020 520309 QNH3017INS BECMG 2815/2816 30011KT 9999 FEW020 500000 QNH3020INS FM290300 VRB05KT BKN020 BKN250 500000 QNH3011INS T11/2813Z T17/2821Z FS30163
KCRQ 
15nm N 
281120Z 2812/2912 VRB04KT P6SM SKC FM281900 27007KT P6SM SCT250 FM290100 VRB04KT P6SM FEW012 SCT250
NOTAMs
Click for the latest NOTAMs
NOTAMs are issued by the DoD/FAA and will open in a separate window not controlled by AirNav.

 

 
 

Would you like to see your business listed on this page?

 If your business provides an interesting product or service to pilots, flight crews, aircraft, or users of the Torrey Pines Gliderport, you should consider listing it here.  To start the listing process, click on the button below
 
Add a business
 

Other Pages about Torrey Pines Gliderport

www.agcsc.org/torrey_pines_info.html
 
Update a link
 
Copyright © AirNav, LLC. All rights reserved. Privacy Policy  Contact